Tracking 32422 objects as of 7-Dec-2025
HD Live streaming from Space Station
objects crossing your sky now

STARLINK-31716

Track STARLINK-31716 now!
10-day predictions
STARLINK-31716 is classified as:


NORAD ID: 59377
Int'l Code: 2024-062D
Perigee: 481.4 km
Apogee: 483.4 km
Inclination: 53.2 °
Period: 94.1 minutes
Semi major axis: 6853 km
RCS: Unknown
Launch date: April 2, 2024
Source: United States (US)
Launch site: AIR FORCE WESTERN TEST RANGE (AFWTR)
Your satellite tracking list
Your tracking list is empty




NASA's NSSDC Master Catalog

Two Line Element Set (TLE):
1 59377U 24062D   25340.85940372  .00002796  00000-0  10649-3 0  9994
2 59377  53.1615 278.2063 0001466 100.7254 259.3912 15.30199619 96097
Source of the keplerian elements: AFSPC